Time,TemperatureF,DewpointF,PressureIn,WindDirection,WindDirectionDegrees,WindSpeedMPH,WindSpeedGustMPH,Humidity,HourlyPrecipIn,Conditions,Clouds,dailyrainin,SoftwareType,DateUTC
2013-07-26 00:02:00,77.0,72.0,29.80,West,270,0.0,0.0,84,0.00,,,0.00,,2013-07-26 05:02:00,
2013-07-26 00:12:00,76.0,71.0,29.80,NE,45,0.0,0.0,84,0.00,,,0.00,,2013-07-26 05:12:00,
2013-07-26 00:22:00,76.0,71.0,29.79,NE,45,0.0,0.0,85,0.00,,,0.00,,2013-07-26 05:22:00,
2013-07-26 00:32:00,76.0,71.0,29.79,NE,45,0.0,0.0,85,0.00,,,0.00,,2013-07-26 05:32:00,
2013-07-26 00:43:00,76.0,71.0,29.79,NE,45,0.0,0.0,85,0.00,,,0.00,,2013-07-26 05:43:00,
2013-07-26 00:52:00,76.0,71.0,29.79,NE,45,0.0,0.0,85,0.00,,,0.00,,2013-07-26 05:52:00,
2013-07-26 01:02:00,76.0,71.0,29.79,NE,45,0.0,0.0,85,0.00,,,0.00,,2013-07-26 06:02:00,
2013-07-26 01:12:00,76.0,72.0,29.79,North,360,0.0,0.0,86,0.00,,,0.00,,2013-07-26 06:12:00,
2013-07-26 01:22:00,76.0,71.0,29.79,NE,45,0.0,0.0,85,0.00,,,0.00,,2013-07-26 06:22:00,
2013-07-26 01:33:00,76.0,71.0,29.78,North,360,0.0,0.0,85,0.00,,,0.00,,2013-07-26 06:33:00,
2013-07-26 01:43:00,76.0,71.0,29.78,North,360,0.0,0.0,85,0.00,,,0.00,,2013-07-26 06:43:00,
2013-07-26 01:52:00,76.0,71.0,29.78,North,360,0.0,0.0,85,0.00,,,0.00,,2013-07-26 06:52:00,
2013-07-26 02:02:00,76.0,71.0,29.78,North,360,0.0,0.0,85,0.00,,,0.00,,2013-07-26 07:02:00,
2013-07-26 02:12:00,76.0,71.0,29.78,North,360,0.0,0.0,85,0.00,,,0.00,,2013-07-26 07:12:00,
2013-07-26 02:22:00,76.0,71.0,29.78,North,360,0.0,0.0,85,0.00,,,0.00,,2013-07-26 07:22:00,
2013-07-26 02:53:00,75.0,71.0,29.78,NE,45,0.0,0.0,86,0.00,,,0.00,,2013-07-26 07:53:00,
2013-07-26 03:02:00,75.0,71.0,29.77,North,360,0.0,0.0,87,0.00,,,0.00,,2013-07-26 08:02:00,
2013-07-26 03:12:00,75.0,71.0,29.77,North,360,0.0,0.0,87,0.00,,,0.00,,2013-07-26 08:12:00,
2013-07-26 03:22:00,75.0,71.0,29.77,North,360,0.0,0.0,87,0.00,,,0.00,,2013-07-26 08:22:00,
2013-07-26 03:32:00,75.0,71.0,29.77,North,360,0.0,0.0,87,0.00,,,0.00,,2013-07-26 08:32:00,
2013-07-26 03:44:00,75.0,71.0,29.77,North,360,0.0,0.0,87,0.00,,,0.00,,2013-07-26 08:44:00,
2013-07-26 03:52:00,75.0,71.0,29.78,NE,45,0.0,0.0,88,0.00,,,0.00,,2013-07-26 08:52:00,
2013-07-26 04:02:00,75.0,71.0,29.78,NE,45,0.0,0.0,88,0.00,,,0.00,,2013-07-26 09:02:00,
2013-07-26 04:12:00,75.0,71.0,29.78,NE,45,0.0,0.0,88,0.00,,,0.00,,2013-07-26 09:12:00,
2013-07-26 04:22:00,75.0,71.0,29.76,North,360,0.0,0.0,88,0.00,,,0.00,,2013-07-26 09:22:00,
2013-07-26 04:32:00,74.0,70.0,29.76,North,360,0.0,0.0,88,0.00,,,0.00,,2013-07-26 09:32:00,
2013-07-26 04:52:00,74.0,71.0,29.77,North,360,0.0,0.0,89,0.00,,,0.00,,2013-07-26 09:52:00,
2013-07-26 05:02:00,74.0,71.0,29.77,North,360,0.0,0.0,89,0.00,,,0.00,,2013-07-26 10:02:00,
2013-07-26 05:12:00,74.0,71.0,29.77,North,360,0.0,0.0,89,0.00,,,0.00,,2013-07-26 10:12:00,
2013-07-26 05:22:00,74.0,71.0,29.77,North,360,0.0,0.0,89,0.00,,,0.00,,2013-07-26 10:22:00,
2013-07-26 05:33:00,75.0,70.0,29.77,North,360,0.0,1.0,85,0.00,,,0.00,,2013-07-26 10:33:00,
2013-07-26 05:43:00,75.0,70.0,29.77,North,360,0.0,1.0,85,0.00,,,0.00,,2013-07-26 10:43:00,
2013-07-26 05:52:00,75.0,70.0,29.77,North,360,0.0,1.0,85,0.00,,,0.00,,2013-07-26 10:52:00,
2013-07-26 06:02:00,75.0,69.0,29.77,North,360,0.0,0.0,83,0.00,,,0.00,,2013-07-26 11:02:00,
2013-07-26 06:12:00,75.0,69.0,29.77,North,360,0.0,0.0,83,0.00,,,0.00,,2013-07-26 11:12:00,
2013-07-26 06:22:00,75.0,69.0,29.77,North,360,0.0,0.0,83,0.00,,,0.00,,2013-07-26 11:22:00,
2013-07-26 06:32:00,75.0,69.0,29.77,North,360,0.0,0.0,83,0.00,,,0.00,,2013-07-26 11:32:00,
2013-07-26 06:43:00,74.0,69.0,29.77,NW,315,0.0,1.0,84,0.00,,,0.00,,2013-07-26 11:43:00,
2013-07-26 06:52:00,74.0,69.0,29.77,NW,315,0.0,1.0,84,0.00,,,0.00,,2013-07-26 11:52:00,
2013-07-26 07:02:00,74.0,69.0,29.77,West,270,0.0,1.0,84,0.00,,,0.00,,2013-07-26 12:02:00,
2013-07-26 07:12:00,74.0,69.0,29.77,West,270,0.0,1.0,84,0.00,,,0.00,,2013-07-26 12:12:00,
2013-07-26 07:22:00,73.0,68.0,29.76,NW,315,0.0,1.0,85,0.00,,,0.00,,2013-07-26 12:22:00,
2013-07-26 07:33:00,73.0,68.0,29.76,NW,315,0.0,1.0,85,0.00,,,0.00,,2013-07-26 12:33:00,
2013-07-26 07:43:00,73.0,68.0,29.76,NW,315,0.0,1.0,85,0.00,,,0.00,,2013-07-26 12:43:00,
2013-07-26 07:53:00,73.0,68.0,29.76,NW,315,0.0,1.0,85,0.00,,,0.00,,2013-07-26 12:53:00,
2013-07-26 14:23:00,72.0,71.0,29.75,West,270,0.0,0.0,97,0.01,,,2.21,,2013-07-26 19:23:00,
2013-07-26 14:32:00,72.0,71.0,29.75,West,270,0.0,0.0,97,0.01,,,2.21,,2013-07-26 19:32:00,
2013-07-26 14:43:00,72.0,72.0,29.74,North,360,0.0,0.0,100,0.04,,,2.23,,2013-07-26 19:43:00,
2013-07-26 14:52:00,72.0,72.0,29.72,North,360,0.0,2.0,99,0.05,,,2.24,,2013-07-26 19:52:00,
2013-07-26 15:02:00,72.0,72.0,29.72,North,360,0.0,2.0,99,0.05,,,2.24,,2013-07-26 20:02:00,
2013-07-26 15:12:00,72.0,72.0,29.72,North,360,0.0,2.0,99,0.05,,,2.24,,2013-07-26 20:12:00,
2013-07-26 15:22:00,72.0,72.0,29.72,NW,315,0.0,1.0,99,0.04,,,2.26,,2013-07-26 20:22:00,
2013-07-26 15:32:00,72.0,72.0,29.72,NW,315,0.0,1.0,99,0.04,,,2.26,,2013-07-26 20:32:00,
2013-07-26 15:43:00,72.0,72.0,29.72,NW,315,0.0,1.0,99,0.04,,,2.26,,2013-07-26 20:43:00,
2013-07-26 15:53:00,73.0,73.0,29.69,NW,315,0.0,3.0,99,0.05,,,2.29,,2013-07-26 20:53:00,
2013-07-26 16:02:00,73.0,73.0,29.70,SW,225,0.0,1.0,99,0.11,,,2.35,,2013-07-26 21:02:00,
2013-07-26 16:12:00,73.0,73.0,29.70,SW,225,0.0,1.0,99,0.11,,,2.35,,2013-07-26 21:12:00,
2013-07-26 16:22:00,73.0,73.0,29.70,West,270,0.0,0.0,99,0.20,,,2.46,,2013-07-26 21:22:00,
2013-07-26 16:32:00,74.0,74.0,29.70,North,360,0.0,1.0,99,0.20,,,2.47,,2013-07-26 21:32:00,
2013-07-26 16:43:00,74.0,74.0,29.70,West,270,0.0,0.0,99,0.21,,,2.48,,2013-07-26 21:43:00,
2013-07-26 16:53:00,74.0,74.0,29.70,West,270,0.0,0.0,99,0.15,,,2.49,,2013-07-26 21:53:00,
2013-07-26 17:02:00,74.0,74.0,29.70,West,270,0.0,0.0,99,0.15,,,2.49,,2013-07-26 22:02:00,
2013-07-26 17:12:00,74.0,74.0,29.68,North,360,0.0,0.0,99,0.11,,,2.49,,2013-07-26 22:12:00,
2013-07-26 17:22:00,74.0,74.0,29.68,North,360,0.0,0.0,99,0.11,,,2.49,,2013-07-26 22:22:00,
2013-07-26 17:33:00,76.0,74.0,29.68,North,360,0.0,1.0,95,0.02,,,2.49,,2013-07-26 22:33:00,
2013-07-26 17:43:00,76.0,74.0,29.68,North,360,0.0,1.0,95,0.02,,,2.49,,2013-07-26 22:43:00,
2013-07-26 17:53:00,75.0,74.0,29.67,NW,315,0.0,1.0,96,0.00,,,2.49,,2013-07-26 22:53:00,
2013-07-26 18:02:00,76.0,74.0,29.67,North,360,0.0,2.0,93,0.00,,,2.49,,2013-07-26 23:02:00,
2013-07-26 18:12:00,75.0,73.0,29.67,NW,315,0.0,2.0,92,0.00,,,2.49,,2013-07-26 23:12:00,
2013-07-26 18:22:00,75.0,73.0,29.67,NW,315,0.0,2.0,92,0.00,,,2.49,,2013-07-26 23:22:00,
2013-07-26 18:32:00,75.0,73.0,29.67,NW,315,0.0,2.0,92,0.00,,,2.49,,2013-07-26 23:32:00,
2013-07-26 18:43:00,74.0,73.0,29.66,North,360,0.0,1.0,96,0.00,,,2.49,,2013-07-26 23:43:00,
2013-07-26 18:52:00,74.0,73.0,29.65,NW,315,0.0,0.0,97,0.00,,,2.49,,2013-07-26 23:52:00,
2013-07-26 19:02:00,74.0,73.0,29.65,NW,315,0.0,0.0,97,0.00,,,2.49,,2013-07-27 00:02:00,
2013-07-26 19:12:00,74.0,73.0,29.64,NW,315,0.0,1.0,97,0.00,,,2.49,,2013-07-27 00:12:00,
2013-07-26 19:22:00,74.0,74.0,29.63,NW,315,0.0,0.0,100,0.00,,,2.49,,2013-07-27 00:22:00,
2013-07-26 19:32:00,74.0,74.0,29.63,NW,315,0.0,0.0,100,0.00,,,2.49,,2013-07-27 00:32:00,
2013-07-26 19:43:00,74.0,74.0,29.63,West,270,0.0,1.0,99,0.00,,,2.49,,2013-07-27 00:43:00,
2013-07-26 19:53:00,74.0,74.0,29.63,West,270,0.0,1.0,99,0.00,,,2.49,,2013-07-27 00:53:00,
2013-07-26 20:02:00,74.0,74.0,29.65,South,180,0.0,1.0,99,0.00,,,2.49,,2013-07-27 01:02:00,
2013-07-26 20:12:00,73.0,73.0,29.67,West,270,1.0,5.0,100,0.09,,,2.59,,2013-07-27 01:12:00,
2013-07-26 20:22:00,72.0,72.0,29.72,South,180,0.0,8.0,100,0.27,,,2.76,,2013-07-27 01:22:00,
2013-07-26 20:32:00,72.0,72.0,29.69,SE,135,0.0,10.0,99,0.59,,,3.08,,2013-07-27 01:32:00,
2013-07-26 20:43:00,72.0,72.0,29.69,SE,135,0.0,10.0,99,0.59,,,3.08,,2013-07-27 01:43:00,
2013-07-26 20:53:00,72.0,72.0,29.69,SE,135,0.0,10.0,99,0.59,,,3.08,,2013-07-27 01:53:00,
2013-07-26 21:02:00,72.0,72.0,29.69,SE,135,0.0,10.0,99,0.59,,,3.08,,2013-07-27 02:02:00,
2013-07-26 21:12:00,71.0,71.0,29.69,West,270,0.0,1.0,99,0.64,,,3.34,,2013-07-27 02:12:00,
2013-07-26 21:22:00,71.0,71.0,29.68,NW,315,0.0,0.0,99,0.45,,,3.34,,2013-07-27 02:22:00,
2013-07-26 21:32:00,71.0,71.0,29.68,NW,315,0.0,0.0,99,0.45,,,3.34,,2013-07-27 02:32:00,
2013-07-26 21:43:00,71.0,71.0,29.69,North,360,0.0,1.0,99,0.26,,,3.43,,2013-07-27 02:43:00,
2013-07-26 21:53:00,71.0,71.0,29.68,North,360,0.0,1.0,99,0.18,,,3.44,,2013-07-27 02:53:00,
2013-07-26 22:03:00,71.0,71.0,29.69,West,270,0.0,0.0,99,0.13,,,3.44,,2013-07-27 03:03:00,
2013-07-26 22:12:00,71.0,71.0,29.70,NW,315,0.0,1.0,99,0.11,,,3.44,,2013-07-27 03:12:00,
2013-07-26 22:22:00,71.0,71.0,29.70,NW,315,0.0,1.0,99,0.11,,,3.44,,2013-07-27 03:22:00,
2013-07-26 22:33:00,71.0,71.0,29.72,WNW,292,0.0,1.0,99,0.05,,,3.44,,2013-07-27 03:33:00,
2013-07-26 22:44:00,71.0,71.0,29.72,West,270,0.0,8.0,99,0.01,,,3.44,,2013-07-27 03:44:00,
2013-07-26 22:52:00,71.0,71.0,29.72,West,270,0.0,8.0,99,0.01,,,3.44,,2013-07-27 03:52:00,
2013-07-26 23:02:00,71.0,71.0,29.72,NW,315,0.0,1.0,99,0.00,,,3.44,,2013-07-27 04:02:00,
2013-07-26 23:12:00,71.0,71.0,29.72,NW,315,0.0,1.0,99,0.00,,,3.44,,2013-07-27 04:12:00,
2013-07-26 23:22:00,71.0,71.0,29.72,NW,315,0.0,0.0,99,0.00,,,3.44,,2013-07-27 04:22:00,
2013-07-26 23:32:00,71.0,71.0,29.72,NW,315,0.0,0.0,99,0.00,,,3.44,,2013-07-27 04:32:00,
2013-07-26 23:43:00,71.0,71.0,29.72,NW,315,0.0,0.0,99,0.01,,,3.45,,2013-07-27 04:43:00,
2013-07-26 23:53:00,71.0,71.0,29.72,South,180,0.0,0.0,99,0.01,,,3.45,,2013-07-27 04:53:00,